Location: Carrières
(48.9495°N, 2.0407°E)
Time: 17:24:43
(UTC+00:00)

Cosmos 1606 Rocket - Pass Details

Date: 20 June 2024
Orbit: 599 x 628 km, 82.5° (Epoch: 15 July)

Event Time Altitude Azimuth Distance (km) Brightness Sun altitude
Rises 01:56:34 0° 347° (NNW) 2,923 7.8 -12.6°
Reaches altitude 10° 01:58:49 10° 345° (NNW) 2,007 6.9 -12.4°
Maximum altitude 02:03:14 66° 264° (W) 683 3.6 -12.0°
Enters shadow 02:06:58 14° 184° (S) 1,739 5.3 -11.7°
